EW5303 Weather Reports


time (UTC)temp
F
wind
direction
speed
knots
gust
knots
rain 1hr
in
rain 24hr
in
rain mn
in
humidity
%
barometer
mb
20260506044505 65 166 0.0 3.5 0.00 0.00 0.00 73 1012.2
20260506043005 65 102 0.0 4.3 0.00 0.00 0.00 73 1012.2
20260506041505 64 112 0.0 4.3 0.00 0.00 0.00 72 1012.1
20260506034505 64 0 0.0 0.0 0.00 0.00 0.00 70 1011.9
20260506033005 65 0 0.0 0.0 0.00 0.00 0.00 67 1012.0
20260506031504 66 0 0.0 0.0 0.00 0.00 0.00 65 1012.2
20260506030005 67 103 0.0 1.7 0.00 0.00 0.00 64 1012.1
20260506024505 68 254 0.0 1.7 0.00 0.00 0.00 63 1012.2
20260506023004 69 223 0.0 1.7 0.00 0.00 0.00 61 1012.1
20260506021504 69 259 0.0 1.7 0.00 0.00 0.00 61 1012.0
20260506020005 69 239 0.0 3.5 0.00 0.00 0.00 60 1011.9
20260506014505 69 17 0.0 3.5 0.00 0.00 0.00 60 1011.9
20260506013005 68 135 0.0 1.7 0.00 0.00 0.00 61 1011.5
20260506011505 68 103 0.0 3.5 0.00 0.00 0.00 60 1011.4
20260506010005 69 83 0.0 1.7 0.00 0.00 0.00 59 1011.2
20260506004509 70 83 0.0 1.7 0.00 0.00 0.00 57 1011.0
20260506003025 72 0 0.0 0.0 0.00 0.00 0.00 54 1010.7
20260506001504 73 94 0.0 1.7 0.00 0.00 0.00 51 1010.8
20260506000004 74 262 0.0 1.7 0.00 0.00 0.00 50 1010.7
20260505234504 76 146 0.0 4.3 0.00 0.00 0.00 49 1010.5
20260505233004 77 35 0.0 6.1 0.00 0.00 0.00 47 1010.4
20260505231504 77 91 0.0 4.3 0.00 0.00 0.00 46 1010.5
20260505230007 79 231 1.7 6.1 0.00 0.00 0.00 44 1010.5
20260505224525 82 155 0.0 6.1 0.00 0.00 0.00 42 1010.6
20260505223025 81 269 0.0 6.1 0.00 0.00 0.00 42 1010.6
20260505221527 81 225 3.5 8.7 0.00 0.00 0.00 41 1010.8
20260505220004 81 183 1.7 8.7 0.00 0.00 0.00 41 1010.9
20260505214504 81 231 1.7 4.3 0.00 0.00 0.00 40 1010.8
20260505213004 81 194 1.7 7.8 0.00 0.00 0.00 39 1010.9
20260505211504 82 166 3.5 8.7 0.00 0.00 0.00 37 1010.8
20260505210004 83 194 3.5 10.4 0.00 0.00 0.00 35 1010.8
20260505204504 84 235 3.5 8.7 0.00 0.00 0.00 34 1010.8
20260505203004 84 259 3.5 10.4 0.00 0.00 0.00 34 1011.0
20260505201504 83 202 3.5 15.6 0.00 0.00 0.00 35 1011.2
20260505200004 82 210 3.5 15.6 0.00 0.00 0.00 35 1011.4
20260505194503 83 216 1.7 10.4 0.00 0.00 0.00 38 1011.4
20260505193004 82 191 1.7 7.8 0.00 0.00 0.00 40 1011.6
20260505191503 84 221 1.7 8.7 0.00 0.00 0.00 36 1011.8
20260505190004 85 265 1.7 8.7 0.00 0.00 0.00 33 1011.9
20260505184503 84 225 3.5 10.4 0.00 0.00 0.00 38 1012.2
20260505183025 85 146 3.5 12.2 0.00 0.00 0.00 35 1012.2
20260505181503 85 154 3.5 10.4 0.00 0.00 0.00 35 1012.6
20260505180004 85 269 3.5 8.7 0.00 0.00 0.00 35 1012.8
20260505174503 85 244 1.7 8.7 0.00 0.00 0.00 37 1013.1
20260505173024 84 181 1.7 6.1 0.00 0.00 0.00 37 1013.3
20260505171503 83 155 1.7 8.7 0.00 0.00 0.00 42 1013.4
20260505170024 82 278 3.5 13.9 0.00 0.00 0.00 42 1013.4
20260505164503 82 283 3.5 10.4 0.00 0.00 0.00 42 1013.6
20260505163003 82 148 1.7 4.3 0.00 0.00 0.00 44 1013.8
20260505161503 81 263 1.7 12.2 0.00 0.00 0.00 45 1014.0
20260505153006 78 140 1.7 4.3 0.00 0.00 0.00 49 1014.3
20260505151506 77 87 1.7 4.3 0.00 0.00 0.00 52 1014.3
20260505124506 64 261 0.0 4.3 0.00 0.00 0.00 71 1014.5
20260505123027 62 72 0.0 4.3 0.00 0.00 0.00 74 1014.5
20260505121506 60 73 0.0 6.1 0.00 0.00 0.00 76 1014.2
20260505120006 58 68 0.0 1.7 0.00 0.00 0.00 80 1014.1
20260505114506 57 203 0.0 1.7 0.00 0.00 0.00 81 1014.0
20260505113027 56 129 0.0 1.7 0.00 0.00 0.00 82 1013.9
20260505111506 54 100 0.0 1.7 0.00 0.00 0.00 85 1013.8
20260505101506 53 0 0.0 0.0 0.00 0.00 0.00 83 1013.6
20260505100027 54 69 0.0 1.7 0.00 0.00 0.00 83 1013.4
20260505094527 54 0 0.0 0.0 0.00 0.00 0.00 83 1013.4
20260505093005 53 0 0.0 0.0 0.00 0.00 0.00 83 1013.4
20260505091506 53 0 0.0 0.0 0.00 0.00 0.00 82 1013.3
20260505090006 53 0 0.0 0.0 0.00 0.00 0.00 82 1013.3
20260505084506 54 69 0.0 1.7 0.00 0.00 0.00 81 1013.1
20260505083006 54 0 0.0 0.0 0.00 0.00 0.00 79 1013.0
20260505081505 55 0 0.0 0.0 0.00 0.00 0.00 77 1012.8
20260505080006 55 0 0.0 0.0 0.00 0.00 0.00 76 1012.8
20260505074526 56 0 0.0 0.0 0.00 0.00 0.00 75 1012.7
20260505073005 56 0 0.0 0.0 0.00 0.00 0.00 73 1012.6
20260505071505 56 73 0.0 1.7 0.00 0.00 0.00 74 1012.6
20260505070005 55 0 0.0 0.0 0.00 0.00 0.00 75 1012.4
20260505064526 55 0 0.0 0.0 0.00 0.00 0.00 75 1012.3
20260505063005 55 0 0.0 0.0 0.00 0.00 0.00 75 1012.2
20260505061526 56 0 0.0 0.0 0.00 0.00 0.00 73 1012.3
20260505060026 57 0 0.0 0.0 0.00 0.00 0.00 72 1012.4
20260505054505 58 0 0.0 0.0 0.00 0.00 0.00 70 1012.3
20260505053005 58 0 0.0 0.0 0.00 0.00 0.00 67 1012.4
20260505051505 59 0 0.0 0.0 0.00 0.00 0.00 66 1012.5